Location: Bottom School (historical)
(37.9078°N, 89.3593°W)
Time: 03:14:49
(UTC+00:00)

CAS-4B - Visible Passes

Search period start: 26 March 2023 00:00
Search period end: 05 April 2023 00:00
Orbit: 510 x 527 km, 43.0° (Epoch: 25 March)

Date Brightness Start Highest point End Pass type
(mag) Time Alt. Az. Time Alt. Az. Time Alt. Az.
26 Mar ? 09:56:17 16° SSE 09:57:10 17° SE 09:59:45 10° E visible
27 Mar ? 09:41:05 19° SE 09:41:05 19° SE 09:43:50 10° E visible
27 Mar ? 11:16:17 10° WSW 11:20:18 89° SSE 11:24:21 10° ENE visible
28 Mar ? 09:25:44 20° ESE 09:25:44 20° ESE 09:27:47 10° E visible
28 Mar ? 11:00:43 14° WSW 11:04:04 81° NNW 11:08:06 10° ENE visible
29 Mar ? 09:10:17 18° ESE 09:10:17 18° ESE 09:11:41 10° E visible
29 Mar ? 10:45:15 21° WSW 10:47:49 73° NNW 10:51:51 10° ENE visible
30 Mar ? 08:54:44 14° E 08:54:44 14° E 08:55:30 10° E visible
30 Mar ? 10:29:41 30° W 10:31:32 66° NNW 10:35:32 10° ENE visible
31 Mar ? 08:39:05 11° E 08:39:05 11° E 08:39:15 10° E visible
31 Mar ? 10:14:03 40° WNW 10:15:13 60° NNW 10:19:12 10° ENE visible
01 Apr ? 09:58:19 50° NW 09:58:52 55° NNW 10:02:49 10° ENE visible
02 Apr ? 09:42:33 51° N 09:42:33 51° N 09:46:24 10° ENE visible
03 Apr ? 09:26:43 43° NNE 09:26:43 43° NNE 09:29:56 10° ENE visible
03 Apr ? 11:02:27 10° WNW 11:06:15 40° N 11:10:03 10° ENE visible
04 Apr ? 09:10:51 33° NE 09:10:51 33° NE 09:13:27 10° ENE visible
04 Apr ? 10:45:59 10° WNW 10:49:48 41° N 10:53:37 10° E visible
